Location: Haskerdijken
(52.9930°N, 5.8774°E)
Time: 09:22:23
(UTC+00:00)

Daily predictions for brighter satellites

Satellite Brightness Start Highest point End
(mag) Time Altitude Azimuth Time Altitude Azimuth Time Altitude Azimuth
Nadezhda 4 Rocket 4.3 20:30:57 10° SSE 20:36:48 49° E 20:42:40 10° NNE
STARLINK-1219 3.6 20:36:26 10° W 20:40:36 89° S 20:44:45 10° E
STARLINK-1073 4.1 20:36:55 10° W 20:40:55 47° SSW 20:44:54 10° SE
Cosmos 2279 Rocket 4.4 20:34:57 10° NNW 20:41:09 66° W 20:47:18 10° S
SL-8 R/B 4.4 20:36:42 10° W 20:41:10 39° SSW 20:45:38 10° SE
STARLINK-1192 3.7 20:38:53 10° SW 20:42:57 57° SSE 20:47:03 10° E
ATLAS CENTAUR R/B 2.6 20:43:19 10° WNW 20:45:05 25° N 20:46:42 10° NE
STARLINK-1211 3.6 20:41:26 10° W 20:45:36 90° ESE 20:49:46 10° E
STARLINK-1121 4.2 20:41:54 10° W 20:45:52 45° SSW 20:49:49 10° SE
Cosmos 371 Rocket 3.5 20:41:53 10° SSW 20:46:46 79° WNW 20:51:41 10° NNE
STARLINK-1244 3.6 20:43:50 10° WSW 20:47:55 60° SSE 20:52:01 10° E
Cosmos 2151 Rocket 4.5 20:43:35 10° NNW 20:47:59 50° W 20:52:21 10° S
SL-4 R/B 4.1 20:46:05 10° SSE 20:48:04 12° SE 20:50:04 10° ESE
Cosmos 1110 Rocket 4.3 20:44:01 10° S 20:48:58 48° ESE 20:53:56 10° NE
Terra 2.3 20:44:51 10° SE 20:49:25 49° ENE 20:54:02 10° N
Abrixas rocket 3.8 20:47:25 10° WSW 20:49:33 18° SSW 20:51:39 10° SSE
STARLINK-1245 3.6 20:46:24 10° W 20:50:34 89° N 20:54:43 10° E
Spot 2 Rocket 3.9 20:45:42 10° S 20:50:42 64° WSW 20:55:45 10° NNW
STARLINK-1106 4.2 20:46:55 10° W 20:50:51 42° SSW 20:54:47 10° SE
SPOT 1/Viking Rocket 3.6 20:46:22 10° SSE 20:51:32 83° WSW 20:56:44 10° NNW
ERBS 2.8 20:48:57 10° WSW 20:52:14 64° NNW 20:55:33 10° ENE
CARTOSAT-1 3.6 20:48:20 10° SSE 20:52:38 72° ENE 20:56:57 10° N
STARLINK-1138 3.6 20:48:48 10° WSW 20:52:53 63° SSE 20:57:00 10° E
STARLINK-1234 2.9 20:50:05 10° W 20:53:22 82° SSW 20:56:40 10° ESE
STARLINK-1233 3.6 20:51:21 10° W 20:55:31 89° N 20:59:41 10° E
STARLINK-1112 4.3 20:51:52 10° W 20:55:47 40° SSW 20:59:40 10° SE
STARLINK-1143 3.6 20:53:44 10° WSW 20:57:50 65° SSE 21:01:57 10° E
STARLINK-1209 3.0 20:56:03 10° W 20:59:21 78° SSW 21:02:39 10° ESE
STARLINK-1204 3.6 20:56:21 10° W 21:00:30 88° NNW 21:04:40 10° E
STARLINK-1128 4.4 20:56:52 10° W 21:00:43 38° SSW 21:04:28 11° SE
STARLINK-1241 3.6 20:58:44 10° WSW 21:02:51 68° SSE 21:06:59 10° E
STARLINK-1238 3.6 21:01:21 10° W 21:05:30 88° N 21:09:40 10° E
STARLINK-1113 4.5 21:01:52 10° W 21:05:41 36° SSW 21:09:15 11° SE
Cosmos 1331 Rocket 4.1 21:00:40 10° S 21:05:43 58° ESE 21:10:50 10° NNE
Cosmos 1733 3.5 21:02:12 10° N 21:06:00 56° ENE 21:09:32 11° SSE
Aureole 2 Rocket 2.0 21:03:19 10° SSW 21:06:24 89° ESE 21:09:21 10° NNE
STARLINK-1239 3.6 21:03:41 10° WSW 21:07:48 70° SSE 21:11:57 10° E
STARLINK-1201 3.6 21:06:19 10° W 21:10:29 88° N 21:14:39 10° E
Cosmos 1437 Rocket 3.5 21:07:41 10° SSW 21:11:24 54° WNW 21:15:12 10° N
STARLINK-1240 3.5 21:08:38 10° WSW 21:12:46 73° SSE 21:16:54 10° E
Cosmos 1486 Rocket 4.3 21:07:59 10° NNW 21:13:16 61° ENE 21:18:13 11° SE
Cosmos 1378 3.1 21:10:13 10° S 21:13:54 65° E 21:17:36 10° NNE
Cosmos 1544 Rocket 4.4 21:10:52 10° N 21:14:56 38° ENE 21:18:39 12° SE
STARLINK-1206 3.6 21:11:19 10° W 21:15:29 88° N 21:19:39 10° E
USA 215 3.6 21:10:01 10° E 21:16:32 71° NNE 21:23:02 10° WNW
Lacrosse 5 4.1 21:15:17 10° W 21:17:25 13° WSW 21:19:33 10° SSW
STARLINK-1203 3.6 21:13:26 10° WSW 21:17:38 75° SSE 21:21:51 10° E
STARLINK-1216 3.5 21:13:35 10° WSW 21:17:43 75° SSE 21:21:53 10° E
Cosmos 1242 Rocket 4.0 21:15:26 12° SE 21:17:55 23° E 21:20:51 10° NE
Cosmos 304 Rocket 3.9 21:13:21 10° SSW 21:18:09 82° WNW 21:22:59 10° NNE
NOSS 8 (E) 4.4 21:16:22 10° SW 21:19:28 73° NW 21:22:35 10° NE
STARLINK-1205 3.6 21:16:17 10° W 21:20:27 88° N 21:24:37 10° E
Cosmos 1092 Rocket 4.0 21:16:13 10° S 21:22:16 66° E 21:28:23 10° NNE
CENTAUR R/B 3.2 21:14:35 10° NW 21:22:24 85° NE 21:31:08 10° SE
NOSS 2-2 (D) 3.3 21:19:12 10° SSW 21:22:42 52° SE 21:26:44 10° NE
STARLINK-1237 3.5 21:18:33 10° WSW 21:22:43 77° SSE 21:26:52 10° E
Lacrosse 4 Rocket 4.5 21:22:18 10° NNW 21:24:08 12° N 21:25:57 10° NNE
STARLINK-1218 3.6 21:21:17 10° W 21:25:27 89° N 21:29:37 10° E
ATLAS 3B R/B 3.2 21:19:05 10° NW 21:25:43 57° NNE 21:32:33 10° ESE
SL-27 R/B 2.5 21:22:57 10° NNW 21:26:35 83° ENE 21:29:28 15° SSE
NOSS 3-2 (C) 4.1 21:20:21 10° NW 21:27:40 85° SW 21:35:37 12° SE
STARLINK-1202 3.5 21:23:32 10° WSW 21:27:41 79° SSE 21:31:51 10° E
Cosmos 1766 3.6 21:25:02 10° NNW 21:29:00 67° W 21:32:47 11° S
Cosmos 1378 Rocket 4.2 21:25:08 10° SSW 21:29:28 58° WNW 21:33:48 10° N
Cosmos 1726 4.0 21:27:10 10° NNE 21:29:58 20° ENE 21:32:46 10° ESE
STARLINK-1254 3.6 21:26:16 10° W 21:30:26 89° N 21:34:35 10° E
Cosmos 1867 3.9 21:27:18 10° NW 21:32:46 67° NE 21:38:06 10° SE
COSMOS 2487 4.2 21:31:10 10° N 21:34:03 24° NE 21:36:55 10° ESE
ALOS 2 4.5 21:31:08 10° ESE 21:34:23 21° ENE 21:37:39 10° N
STARLINK-1231 3.6 21:31:14 10° W 21:35:24 90° SSW 21:39:33 10° E
STARLINK-1246 3.5 21:33:30 10° WSW 21:37:39 83° S 21:41:49 10° E
Cosmos 1943 Rocket 2.2 21:33:33 10° SSW 21:39:00 61° ESE 21:44:33 10° NE
Cosmos 2297 4.0 21:33:30 10° SW 21:39:11 74° WNW 21:44:58 10° NNE
NOSS 2-2 (E) 3.2 21:36:18 10° SW 21:39:56 85° SE 21:44:21 10° NE
STARLINK-1232 3.6 21:36:14 10° W 21:40:24 89° S 21:44:33 10° E
NOSS 3-4 (A) 4.4 21:36:32 13° SSE 21:40:36 26° ESE 21:45:38 10° ENE
NOSS 3-4 (C) 4.5 21:36:40 13° SSE 21:40:42 26° ESE 21:45:44 10° ENE
Cosmos 2082 Rocket 4.4 21:37:44 10° WNW 21:41:13 17° W 21:44:41 10° SW
SeaSat 1 3.8 21:38:09 10° NE 21:41:58 22° ESE 21:44:34 15° SE
STARLINK-1224 3.5 21:38:28 10° WSW 21:42:38 84° SSE 21:46:47 10° E
STARLINK-1208 3.6 21:41:11 10° W 21:45:21 88° SSW 21:49:31 10° E
Cosmos 1461 3.7 21:43:03 10° WSW 21:47:14 57° NW 21:51:40 10° NE
STARLINK-1225 3.6 21:43:27 10° W 21:47:38 86° SSE 21:51:47 10° E
STARLINK-1212 2.9 21:45:25 10° W 21:48:29 57° SSW 21:50:46 16° ESE
Cosmos 1975 Rocket 3.0 21:44:36 11° S 21:48:55 86° ESE 21:53:21 10° NNE
STARLINK-1105 2.9 21:45:53 10° W 21:48:57 57° SSW 21:51:13 16° ESE
STARLINK-1247 3.0 21:46:46 10° W 21:49:50 57° SSW 21:52:06 16° ESE
STARLINK-1227 2.9 21:47:15 10° W 21:50:20 56° SSW 21:52:32 17° SE
STARLINK-1271 3.6 21:46:12 10° W 21:50:22 87° S 21:54:32 10° E
STARLINK-1226 3.0 21:48:07 10° W 21:51:11 56° SSW 21:53:23 17° SE
BREEZE-M DEB (TANK) 3.8 21:37:41 10° WSW 21:51:16 53° S 21:55:06 10° E
BREEZE-M DEB (TANK) 3.0 21:47:58 10° W 21:51:57 53° S 21:55:34 10° ESE
STARLINK-1215 3.0 21:49:01 10° W 21:52:05 55° SSW 21:54:16 17° SE
Cosmos 292 Rocket 4.1 21:48:20 13° S 21:52:24 48° ESE 21:57:06 10° NE
STARLINK-1230 3.6 21:48:26 10° W 21:52:35 87° S 21:56:45 10° E
Cosmos 2227 Rocket 4.4 21:48:21 10° NNW 21:52:36 21° NNE 21:56:50 10° ENE
S3M 4.3 21:47:04 10° N 21:53:08 57° ENE 21:58:10 16° SSE
STARLINK-1217 3.0 21:50:50 10° W 21:53:54 54° SSW 21:56:00 18° SE
STARLINK-1229 3.0 21:51:45 10° W 21:54:48 54° SSW 21:56:54 18° SE
Cosmos 2369 Rocket 2.3 21:49:38 10° SSW 21:55:12 60° ESE 22:00:46 10° NE
STARLINK-1154 3.6 21:51:10 10° W 21:55:20 85° SSW 21:59:30 10° ESE
STARLINK-1270 3.0 21:52:38 10° W 21:55:42 53° SSW 21:57:46 18° SE
Aureole 3 Rocket 4.3 21:50:53 10° N 21:56:49 86° E 22:03:54 15° S
STARLINK-1189 3.0 21:54:26 10° W 21:57:29 52° SSW 21:59:29 19° SE
STARLINK-1243 3.6 21:53:25 10° W 21:57:35 88° S 22:01:45 10° E
STARLINK-1188 3.1 21:55:20 10° W 21:58:24 51° SSW 22:00:21 19° SE
SPOT 5 4.2 21:53:50 10° SSW 21:58:44 39° W 22:03:46 10° NNW
STARLINK-1187 3.1 21:56:27 10° W 21:59:27 47° SSW 22:01:13 21° SE
Cosmos 1340 Rocket 3.8 21:55:50 10° N 21:59:40 38° ENE 22:02:31 16° SE
STARLINK-1197 3.5 21:56:08 10° W 22:00:18 84° S 22:04:27 10° ESE
STARLINK-1191 3.1 21:57:47 10° W 22:00:49 50° SSW 22:02:40 20° SE
ATLAS CENTAUR R/B 2.9 21:59:35 17° SE 22:00:56 20° ESE 22:03:59 10° ENE
STARLINK-1221 3.1 21:58:44 10° W 22:01:46 49° SSW 22:03:34 21° SE
STARLINK-1236 3.6 21:58:23 10° W 22:02:33 89° S 22:06:43 10° E
STARLINK-1222 3.1 21:59:36 10° W 22:02:37 49° SSW 22:04:23 21° SE
Thor Agena Rocket 4.0 21:58:11 10° NNE 22:03:20 48° E 22:07:12 17° S
STARLINK-1214 3.1 22:00:29 10° W 22:03:31 48° SSW 22:05:15 21° SE
NOSS 2-2 (C) 3.4 22:00:57 10° SW 22:04:35 76° NW 22:08:56 10° NE
ERS-1 Rocket 4.5 22:00:25 10° SSW 22:04:48 29° W 22:09:13 10° NNW
STARLINK-1198 3.5 22:01:06 10° W 22:05:17 82° S 22:09:26 10° ESE
EXPRESS MD2 4.1 22:01:36 10° WSW 22:05:30 59° SSE 22:13:31 10° E
Cosmos 1025 Rocket 3.4 22:02:58 19° SSE 22:05:49 47° E 22:09:58 10° NNE
Okean 2 3.9 22:02:14 10° SSW 22:06:19 58° WNW 22:10:27 10° N
Cosmos 1553 Rocket 4.0 22:00:21 10° N 22:06:42 88° ENE 22:11:43 17° S
Cosmos 2026 Rocket 4.1 22:00:27 10° S 22:06:45 84° W 22:13:11 10° N
BREEZE M DEB (TANK) 2.4 22:04:38 10° WSW 22:07:40 35° S 22:08:33 24° SE
Cosmos 1953 2.8 22:04:10 10° N 22:08:05 51° ENE 22:10:41 19° SE
ATLAS 2AS CENTAUR R/B 3.4 22:01:07 10° S 22:08:36 47° ESE 22:16:05 10° NE
Cosmos 1656 Rocket 4.2 22:04:50 16° S 22:08:55 42° ESE 22:14:07 10° NE
Cosmos 1470 2.8 22:05:20 10° NNW 22:09:13 75° W 22:11:51 19° S
STARLINK-1228 3.6 22:05:57 10° W 22:09:17 42° SSW 22:11:08 22° SSE
STARLINK-1199 3.5 22:06:06 10° W 22:10:16 80° SSW 22:14:26 10° ESE
STARLINK-1235 3.5 22:08:41 10° W 22:11:45 39° SSW 22:13:11 24° SSE
STARLINK-1269 3.6 22:08:21 10° W 22:12:31 89° N 22:16:42 10° E
APEX 4.3 22:07:05 10° SSW 22:13:21 60° ESE 22:18:27 10° NE
Cosmos 968 Rocket 3.7 22:08:42 10° NNW 22:13:49 63° WSW 22:17:31 18° S
Cosmos 2292 Rocket 4.4 22:13:24 18° SE 22:14:57 24° E 22:17:36 10° NE
STARLINK-1210 3.5 22:11:04 10° W 22:15:14 78° SSW 22:19:23 10° ESE
Cosmos 1455 Rocket 3.9 22:11:52 10° NNW 22:16:01 44° W 22:19:25 14° SSW
STARLINK-1200 3.6 22:13:19 10° W 22:17:29 89° N 22:21:39 10° E
Cosmos 1655 Rocket 4.2 22:15:01 17° S 22:19:48 61° E 22:25:59 10° NNE
STARLINK-1219 3.5 22:16:02 10° W 22:20:12 76° SSW 22:24:21 10° ESE
SL-4 R/B 1.9 22:20:18 24° ESE 22:20:56 29° ENE 22:22:55 10° N
STARLINK-1192 3.6 22:18:19 10° W 22:22:29 88° N 22:26:39 10° E
ATLAS 5 CENTAUR R/B 2.5 22:21:46 22° SSE 22:22:40 25° SE 22:24:43 10° E
Cosmos 1758 3.6 22:18:40 10° NNW 22:22:41 63° W 22:25:25 20° S
STARLINK-1211 3.5 22:21:02 10° W 22:25:11 74° SSW 22:29:20 10° ESE
Cosmos 2228 4.1 22:21:49 10° N 22:25:45 35° ENE 22:28:36 16° SE
SL-4 R/B 2.8 22:22:23 10° SW 22:26:50 39° SSE 22:31:19 10° E
Terra 3.4 22:23:22 10° SSW 22:27:24 27° W 22:31:29 10° NW
STARLINK-1244 3.6 22:23:17 10° W 22:27:28 88° N 22:31:37 10° E
Cosmos 1842 4.3 22:24:09 10° SSW 22:27:53 43° WNW 22:31:37 10° N
ERBS 3.8 22:25:43 10° WNW 22:28:53 39° N 22:32:03 10° ENE
STARLINK-1234 3.9 22:26:31 10° W 22:29:27 31° SSW 22:30:17 26° S
STARLINK-1245 3.5 22:26:00 10° W 22:30:09 72° SSW 22:34:17 10° ESE
STARLINK-1138 3.6 22:28:17 10° W 22:32:26 88° N 22:36:37 10° E
In-Cosmos 22 4.4 22:30:05 20° SSE 22:33:34 51° E 22:38:41 10° NNE
Cosmos 1503 Rocket 4.3 22:28:43 10° NNW 22:33:57 60° WSW 22:37:35 20° S
STARLINK-1233 3.5 22:30:59 10° W 22:35:06 69° SSW 22:39:11 10° ESE
STARLINK-1209 4.1 22:32:43 10° W 22:35:35 28° SSW 22:36:13 26° S
STARLINK-1143 3.6 22:33:14 10° W 22:37:24 88° N 22:41:34 10° E
Cosmos 2266 Rocket 4.1 22:33:43 19° SSE 22:38:04 61° E 22:44:01 10° NNE
STARLINK-1204 3.5 22:35:58 10° W 22:40:05 67° SSW 22:43:59 11° ESE
SJ 16-02 3.7 22:38:35 10° N 22:41:45 19° NE 22:44:55 10° E
STARLINK-1241 3.6 22:38:15 10° W 22:42:26 89° NNE 22:46:35 10° E
Cosmos 2263 4.2 22:39:27 10° SSW 22:45:04 87° WNW 22:50:44 10° NNE
STARLINK-1238 3.6 22:40:58 10° W 22:45:04 64° SSW 22:48:47 12° ESE
STARLINK-1239 3.6 22:43:14 10° W 22:47:24 89° NNE 22:51:34 10° E
Cosmos 1536 Rocket 3.6 22:45:44 19° SSW 22:48:45 77° WNW 22:53:10 10° N
STARLINK-1201 3.6 22:45:56 10° W 22:50:02 62° SSW 22:53:33 14° ESE
Cosmos 1674 3.4 22:48:20 24° SSE 22:50:06 40° E 22:53:41 10° NNE
STARLINK-1240 3.6 22:48:11 10° W 22:52:22 90° ENE 22:56:31 10° E
Cosmos 1271 Rocket 3.4 22:49:29 16° SW 22:52:27 51° WNW 22:56:20 10° N
Cosmos 1242 Rocket 3.9 22:49:25 11° SW 22:52:38 35° WNW 22:56:04 10° N
Cosmos 883 Rocket 4.5 22:48:26 10° N 22:54:37 89° W 22:58:57 21° S
STARLINK-1206 3.6 22:50:56 10° W 22:55:01 59° SSW 22:58:21 15° SE
STARLINK-60 3.0 22:52:21 11° SW 22:55:20 49° SSE 22:58:27 10° E
Cosmos 2219 4.0 22:51:00 10° NNW 22:56:31 48° NE 23:01:57 10° ESE
Spot 4 4.4 22:53:29 20° SSW 22:56:39 49° W 23:01:23 10° NNW
COSMOS 2455 3.0 22:52:50 18° SSW 22:57:16 57° ESE 23:03:09 10° NE
STARLINK-1216 3.6 22:53:10 10° W 22:57:19 89° SW 23:01:30 10° E
STARLINK-1203 3.6 22:53:14 10° W 22:57:27 89° SSW 23:01:41 10° E
USA 215 3.3 22:53:06 10° SE 22:59:38 68° SSW 23:06:11 10° WNW
STARLINK-1205 3.7 22:55:54 10° W 22:59:58 56° SSW 23:03:07 16° SE
Cosmos 2297 Rocket 3.2 22:55:20 10° NNW 23:00:45 44° NE 23:06:09 10° ESE
STARLINK-1237 3.5 22:58:09 10° W 23:02:19 88° SSW 23:06:29 10° E
Cosmos 1707 3.5 22:59:44 17° SW 23:02:31 48° WNW 23:06:18 10° N
Helios 1A 3.1 23:01:35 22° SSE 23:04:10 68° ENE 23:08:21 10° N
Lacrosse 4 Rocket 3.7 23:00:45 10° NNW 23:04:22 24° NNE 23:07:54 10° E
STARLINK-1218 3.7 23:00:54 10° W 23:04:57 54° SSW 23:07:55 17° SE
Cosmos 1726 2.9 23:01:51 10° NNW 23:05:24 43° W 23:07:20 23° SSW
STARLINK-1202 3.5 23:03:08 10° W 23:07:18 87° SSW 23:11:28 10° E
Cosmos 1174 3.5 23:06:36 28° SSW 23:08:08 59° SE 23:12:01 10° NE
Timation 2 Rocket 3.9 23:01:50 10° NW 23:08:15 86° WSW 23:12:54 18° SSE
Cosmos 2058 Rocket 3.7 23:04:44 10° N 23:09:05 50° ENE 23:11:58 20° SE
COSMOS 2487 3.4 23:05:59 10° NW 23:09:12 35° WSW 23:10:32 25° SSW
STARLINK-1254 3.8 23:05:52 10° W 23:09:54 51° SSW 23:12:41 19° SE
ALOS 2 2.7 23:07:47 24° S 23:10:20 65° WSW 23:14:43 10° NNW
CENTAUR R/B 4.0 23:05:38 10° NW 23:12:46 36° WSW 23:18:18 18° S
STARLINK-1231 3.8 23:10:51 10° W 23:14:51 49° SSW 23:17:27 20° SE
ATLAS 3B R/B 3.0 23:09:56 10° NW 23:16:28 52° SW 23:21:09 20° SSE
EO 1 Del DPAF 4.4 23:13:01 10° N 23:16:33 37° WNW 23:19:29 13° SW
STARLINK-1246 3.5 23:13:07 10° W 23:17:16 84° SSW 23:21:26 10° ESE
Meteor 2-5 Rocket 4.0 23:14:12 22° SSE 23:17:44 55° E 23:23:15 10° NNE
Cosmos 1606 Rocket 3.5 23:14:50 10° NNW 23:19:10 75° W 23:21:36 25° S
STARLINK-1232 3.9 23:15:51 10° W 23:19:50 46° SSW 23:22:14 21° SE
SeaSat 1 2.6 23:15:01 10° NNE 23:19:58 77° NW 23:24:20 13° SW
FALCON 9 DEB 3.8 23:20:07 32° SSE 23:20:31 33° SSE 23:23:40 10° E
SL-14 R/B 4.3 23:19:11 21° SE 23:21:01 33° E 23:24:31 10° NNE
STARLINK-1224 3.5 23:18:05 10° W 23:22:15 83° S 23:26:24 10° ESE
Cosmos 1943 Rocket 3.7 23:18:04 10° WSW 23:23:07 34° NW 23:28:16 10° NNE
STARLINK-1208 3.9 23:20:49 10° W 23:24:46 44° SSW 23:27:00 22° SSE
STARLINK-29 3.1 23:24:02 29° SSW 23:25:15 46° SSE 23:28:21 10° E
Cosmos 2098 Rocket 4.4 23:20:08 20° S 23:25:32 88° E 23:33:03 10° N
ATLAS CENTAUR R/B 0.7 23:25:11 10° WNW 23:27:13 86° NE 23:30:39 10° ESE
STARLINK-1225 3.5 23:23:04 10° W 23:27:14 81° SSW 23:31:24 10° ESE
SL-16 R/B 4.4 23:22:58 10° ESE 23:27:54 26° NE 23:32:50 10° N
STARLINK-1271 4.0 23:25:50 10° W 23:29:46 42° SSW 23:31:49 24° SSE
NOSS 3-4 (A) 3.5 23:24:42 10° SW 23:30:44 85° NW 23:37:18 10° NE
NOSS 3-4 (C) 3.5 23:24:47 10° SW 23:30:50 86° NW 23:37:25 10° NE
RESURS DK-1 2.6 23:29:48 27° S 23:31:50 54° ESE 23:35:54 10° NE
STARLINK-1230 3.5 23:28:02 10° W 23:32:12 79° SSW 23:36:21 10° ESE
Cosmos 2315 Rocket 4.2 23:26:38 10° NNW 23:32:45 61° W 23:36:58 21° SSW
STARLINK-1154 4.1 23:30:49 10° W 23:34:42 40° SSW 23:36:35 25° SSE
Cosmos 2084 4.0 23:33:37 26° S 23:35:42 44° SE 23:39:57 10° ENE
Cosmos 1340 Rocket 4.4 23:32:37 10° NW 23:35:58 25° W 23:38:06 16° SW
BREEZE-M R/B 4.4 23:31:45 15° SSW 23:36:15 29° SSE 23:39:46 10° E
STARLINK-1243 3.5 23:33:02 10° W 23:37:11 77° SSW 23:41:20 10° ESE
Cosmos 1626 2.5 23:36:00 27° SSE 23:37:44 51° E 23:41:22 10° NNE
Cosmos 2227 Rocket 2.6 23:32:09 10° NNW 23:37:49 64° NE 23:43:26 10° SE
ATLAS CENTAUR R/B 1.5 23:35:42 13° SW 23:39:29 76° NW 23:43:32 10° NE
Cosmos 2369 Rocket 3.7 23:34:23 10° WSW 23:39:34 35° NW 23:44:44 10° NNE
STARLINK-1197 4.1 23:35:48 10° W 23:39:38 37° SSW 23:41:21 26° SSE
Okean 1-7 Rocket 3.8 23:37:39 25° S 23:40:12 64° E 23:44:43 10° NNE
Cosmos 1908 4.1 23:37:06 10° NNW 23:40:40 38° W 23:42:29 23° SW
CZ-4 R/B 4.5 23:36:31 10° NNE 23:41:06 44° E 23:43:50 22° SSE
STARLINK-1236 3.5 23:38:00 10° W 23:42:09 75° SSW 23:46:18 10° ESE
Nadezhda 2 Rocket 4.5 23:39:44 21° S 23:43:57 83° E 23:50:08 10° NNE
Cosmos 1953 4.3 23:41:21 10° NW 23:44:08 18° W 23:46:22 12° SW
STARLINK-1198 4.2 23:40:47 10° W 23:44:36 35° SSW 23:46:07 26° S
Landsat 4 3.6 23:45:22 10° NNE 23:49:06 87° ESE 23:51:00 28° SSW
STARLINK-1199 4.3 23:45:48 10° W 23:49:34 34° SSW 23:50:55 26° S
STARLINK-1269 3.5 23:47:58 10° W 23:52:06 70° SSW 23:56:14 10° ESE
STARLINK-1210 4.4 23:50:48 10° W 23:54:30 32° SSW 23:55:41 27° S
